Home > Weather > Lustenau > Past weeks

Flag for Austria Weather for the Past 2 Weeks in Lustenau, Vorarlberg, Austria

Now
37 °F

Clear.


Feels Like: 31 °F
Forecast: 28 / 46 °F
Wind: 9 mph from South

Location: Saint Gallen-Altenrhein

Current Time: Feb 11, 2016 at 6:47:25 AM

Latest Report: Feb 11, 2016 at 5:50 AM


Visibility: N/A

Pressure: 29.80 "Hg

Humidity: 60%

Dew point: 25 °F

Location of LustenauLocation

Historic Weather in Lustenau — Graph

°F

Lustenau Temperature Yesterday

Maximum temperature yesterday: 41 °F (at 2:20 AM)
Minimum temperature yesterday: 36 °F (at 6:20 AM)
Average temperature yesterday: 39 °F

High & Low Weather Summary for the Past Weeks

 TemperatureHumidityPressure
High61 °F (Feb 7, 10:20 AM)100% (Jan 27, 5:20 AM)30.48 "Hg (Jan 27, 5:20 AM)
Low32 °F (Jan 27, 6:20 AM)29% (Feb 6, 10:50 PM)29.30 "Hg (Feb 9, 4:20 PM)
Average44 °F79%30.07 "Hg
* Reported Jan 27 5:20 AM — Feb 11 5:20 AM, Lustenau, Weather by CustomWeather, © 2016

Note: Actual official high and low records may vary slightly from our data, if they occured in-between our weather recording intervals... More about our weather records

Advertising

Lustenau Weather History for the Previous 24 Hours

 ConditionsComfort  
Time TempWeatherWind HumidityBarometerVisibility
5:20 AM
Thu, Feb 11
39 °FPartly cloudy.9 mph56%29.80 "HgN/A
4:50 AM37 °FPassing clouds.5 mph56%29.80 "HgN/A
4:20 AM32 °FClear.1 mph75%29.77 "Hg10 mi
3:50 AM37 °FClear.2 mph56%29.77 "Hg10 mi
3:20 AM37 °FChilly.5 mph60%29.77 "HgN/A
2:50 AM36 °FPassing clouds.6 mph60%29.77 "HgN/A
2:20 AM37 °FPassing clouds.5 mph60%29.77 "HgN/A
1:50 AM37 °FPassing clouds.3 mph60%29.74 "HgN/A
1:20 AM37 °FClear.6 mph60%29.74 "HgN/A
12:50 AM37 °FPassing clouds.2 mph60%29.74 "HgN/A
12:20 AM39 °FOvercast.3 mph52%29.71 "HgN/A
11:50 PM
Wed, Feb 10
39 °FOvercast.6 mph52%29.71 "HgN/A
11:20 PM37 °FMostly cloudy.8 mph60%29.71 "HgN/A
10:50 PM37 °FPartly cloudy.3 mph56%29.71 "HgN/A
10:20 PM37 °FClear.2 mph56%29.71 "Hg10 mi
9:50 PM37 °FClear.3 mph56%29.71 "HgN/A
9:20 PM37 °FPassing clouds.5 mph56%29.68 "HgN/A
8:50 PM39 °FPartly cloudy.6 mph52%29.68 "HgN/A
8:20 PM39 °FPassing clouds.6 mph56%29.68 "HgN/A
7:50 PM39 °FPassing clouds.6 mph56%29.68 "HgN/A
7:20 PM39 °FPassing clouds.8 mph52%29.68 "HgN/A
6:50 PM41 °FMostly cloudy.10 mph49%29.65 "HgN/A
6:20 PM41 °FPassing clouds.12 mph53%29.65 "HgN/A
5:50 PM39 °FPassing clouds.9 mph56%29.62 "HgN/A
5:20 PM39 °FPartly sunny.12 mph56%29.62 "HgN/A
4:50 PM39 °FPartly sunny.13 mph61%29.59 "HgN/A
4:20 PM39 °FPartly sunny.12 mph61%29.59 "HgN/A
3:50 PM39 °FPartly sunny.9 mph61%29.59 "HgN/A
3:20 PM39 °FScattered showers. Partly sunny.8 mph61%29.59 "HgN/A
2:50 PM39 °FScattered showers. Partly sunny.12 mph61%29.59 "HgN/A
2:20 PM37 °FScattered showers. Partly sunny.9 mph75%29.59 "HgN/A
1:50 PM39 °FSprinkles. Partly sunny.12 mph65%29.59 "HgN/A
1:20 PM41 °FPartly sunny.10 mph57%29.59 "HgN/A
12:50 PM41 °FPartly sunny.12 mph53%29.56 "HgN/A
12:20 PM41 °FPartly sunny.12 mph53%29.59 "HgN/A
11:50 AM41 °FPartly sunny.14 mph53%29.59 "HgN/A
11:20 AM41 °FPartly sunny.10 mph57%29.59 "HgN/A
10:50 AM39 °FPartly sunny.13 mph65%29.59 "HgN/A
10:20 AM39 °FPartly sunny.15 mph65%29.56 "HgN/A
9:50 AM37 °FPartly sunny.13 mph75%29.56 "HgN/A
9:20 AM37 °FPartly sunny.14 mph75%29.56 "HgN/A
8:50 AM36 °FSnow flurries. Broken clouds.14 mph87%29.50 "HgN/A
8:20 AM36 °FSnow flurries. Partly sunny.13 mph81%29.50 "HgN/A
7:50 AM37 °FBroken clouds.13 mph75%29.47 "HgN/A
7:20 AM36 °FSnow flurries. Partly cloudy.14 mph81%29.47 "HgN/A
6:50 AM37 °FSnow flurries. Passing clouds.14 mph75%29.47 "HgN/A
6:20 AM36 °FSnow flurries. Passing clouds.16 mph81%29.47 "HgN/A
Weather by CustomWeather, © 2016

See weather overviewHow to use our weather pages